[[[{"header":{"parameterUnit":"kt","parameterCategory":2,"dx":1,"dy":1,"la1":30.253999710083008,"la2":30.299108505249023,"lo1":-89.0895004272461,"lo2":-89.04439544677734,"nx":28,"ny":28,"refTime":"2022-10-10T21:00:00:Z","depth":0,"parameterNumber":1,"parameterNumberName":"U-component_of_WINDS"},"data":[-6.6035,-6.6175,-6.6213,-6.639,-6.6453,-6.658,-6.6637,-6.6714,-6.6785,-6.6941,-6.7037,-6.7087,-6.7171,-6.7293,-6.7398,-6.7418,-6.7459,-6.7484,-6.7502,-6.7359,-6.7342,-6.7325,-6.7294,-6.7493,-6.7493,-6.7643,-6.7645,-6.7646,-6.5934,-6.5998,-6.6102,-6.6227,-6.6317,-6.6317,-6.6416,-6.649,-6.6603,-6.6691,-6.6786,-6.6925,-6.7039,-6.7115,-6.723,-6.7297,-6.7301,-6.7325,-6.7319,-6.7332,-6.7182,-6.7148,-6.732,-6.732,-6.732,-6.732,-6.732,-6.732,-6.5759,-6.5841,-6.5938,-6.605,-6.6123,-6.6207,-6.6291,-6.635,-6.6451,-6.6576,-6.6598,-6.6726,-6.6819,-6.6973,-6.7033,-6.7133,-6.7112,-6.7148,-6.7157,-6.7165,-6.7169,-6.6948,-6.7154,-6.7154,-6.7154,-6.7153,-6.7153,0,-6.5641,-6.5666,-6.5766,-6.5879,-6.5963,-6.6053,-6.6141,-6.6194,-6.6255,-6.6336,-6.6455,-6.653,-6.6677,-6.6792,-6.6906,-6.6961,-6.6963,-6.6968,-6.6993,-6.6982,-6.6961,-6.6973,-6.6725,-6.696,-6.6958,-6.6957,-6.6956,-6.6956,-6.5466,-6.5557,-6.5673,-6.5739,-6.5795,-6.5901,-6.5971,-6.6017,-6.6089,-6.6204,-6.6273,-6.639,-6.6484,-6.6669,-6.6733,-6.6842,-6.6843,-6.6929,-6.6859,-6.6848,-6.6843,-6.6836,-6.6845,-6.694,-6.6942,-6.6944,-6.6945,0,-6.5364,-6.542,-6.5571,-6.5676,-6.5705,-6.5798,-6.5887,-6.5971,-6.6017,-6.6138,-6.6168,-6.624,-6.6355,-6.6406,-6.6547,-6.6569,-6.6724,-6.6723,-6.6693,-6.6695,-6.6776,-6.6767,-6.7032,-6.7069,-6.6865,-6.6867,-6.6869,0,-6.5234,-6.5351,-6.5428,-6.5512,-6.5644,-6.5686,-6.5816,-6.5868,-6.5947,-6.6042,-6.6054,-6.6143,-6.6193,-6.629,-6.6323,-6.6458,-6.6484,-6.6509,-6.6515,-6.6506,-6.6503,-6.6541,-6.653,-6.6529,-6.6527,-6.6526,-6.6525,0,-6.5066,-6.5243,-6.5381,-6.543,-6.555,-6.5615,-6.5668,-6.5755,-6.5822,-6.5917,-6.5961,-6.6068,-6.6126,-6.6209,-6.6249,-6.62,-6.6416,-6.6356,-6.644,-6.644,-6.6482,-6.6478,-6.6704,-6.6523,-6.6523,-6.6522,-6.6522,0,-6.4967,-6.5063,-6.5255,-6.5356,-6.54,-6.549,-6.5598,-6.5687,-6.5778,-6.5805,-6.5879,-6.5891,-6.6013,-6.595,-6.6119,-6.6043,-6.61,-6.6134,-6.6141,-6.6151,-6.6079,-6.6197,-6.641,-6.6433,-6.6167,-6.6164,-6.6162,0,-6.476,-6.4967,-6.5003,-6.5183,-6.5285,-6.5291,-6.5393,-6.5472,-6.5515,-6.5608,-6.5656,-6.576,-6.5724,-6.5762,-6.584,-6.5892,-6.5991,-6.5881,-6.6012,-6.6016,-6.5986,-6.6183,-6.62,-6.6358,-6.6125,-6.6128,-6.6131,0,-6.4604,-6.4747,-6.4776,-6.4833,-6.4943,-6.5027,-6.5144,-6.5256,-6.5316,-6.5403,-6.5501,-6.5649,-6.5627,-6.569,-6.571,-6.5788,-6.5926,-6.5753,-6.5755,-6.5781,-6.611,-6.6126,-6.6153,-6.5922,-6.5926,-6.593,-6.6102,0,-6.4441,-6.455,-6.4632,-6.4754,-6.4827,-6.4941,-6.4991,-6.5062,-6.5073,-6.5114,-6.5259,-6.5334,-6.5445,-6.5488,-6.5498,-6.5661,-6.564,-6.5615,-6.5553,-6.5683,-6.5741,-6.5764,-6.5464,-6.5462,-6.5461,-6.546,0,0,-6.4227,-6.4383,-6.4415,-6.4528,-6.4591,-6.4592,-6.471,-6.4771,-6.4893,-6.4936,-6.4904,-6.5121,-6.5182,-6.5351,-6.5396,-6.5441,-6.5474,-6.5425,-6.5621,-6.5639,-6.5656,-6.5716,-6.574,-6.5458,-6.5457,-6.5457,-6.5456,0,-6.4176,-6.424,-6.4356,-6.4421,-6.4518,-6.4555,-6.4583,-6.4678,-6.4709,-6.485,-6.4845,-6.4938,-6.5108,-6.5173,-6.5229,-6.5408,-6.5397,-6.5439,-6.5518,-6.5607,-6.5626,-6.5644,-6.5707,-6.573,-6.5453,-6.5453,-6.5454,0,-6.403,-6.41,-6.4161,-6.4303,-6.4365,-6.4468,-6.4418,-6.4528,-6.4605,-6.4595,-6.4733,-6.478,-6.487,-6.5024,-6.5095,-6.5066,-6.5325,-6.5251,-6.526,-6.5267,-6.5355,-6.5378,-6.5399,-6.5124,-6.5123,-6.5122,0,0,-6.3979,-6.4079,-6.4165,-6.4295,-6.4335,-6.4391,-6.4449,-6.4465,-6.4546,-6.4578,-6.4637,-6.4716,-6.4816,-6.488,-6.4975,-6.5137,-6.5158,-6.5208,-6.5224,-6.5236,-6.525,-6.5341,-6.5364,-6.5117,-6.5117,-6.5116,0,0,-6.3954,-6.4059,-6.4055,-6.4211,-6.4289,-6.4381,-6.4458,-6.4455,-6.4545,-6.4537,-6.4567,-6.4589,-6.4733,-6.4778,-6.4705,-6.4954,-6.4893,-6.4911,-6.4918,-6.4938,-6.4954,-6.4938,-6.466,0,0,0,0,0,-6.3925,-6.4046,-6.4041,-6.4075,-6.4251,-6.4384,-6.4407,-6.4434,-6.4392,-6.4453,-6.4502,-6.4486,-6.4746,-6.4682,-6.4714,-6.4793,-6.5052,-6.5063,-6.5074,-6.5122,-6.5142,-6.516,0,0,0,0,0,0,-6.3938,-6.3978,-6.4038,-6.4134,-6.4174,-6.438,-6.4313,-6.4324,-6.4386,-6.4381,-6.4477,-6.4489,-6.4514,-6.4667,-6.4696,-6.477,-6.465,-6.5056,-6.5066,-6.5075,-6.5129,-6.5146,-6.516,0,0,0,0,0,-6.3949,-6.3981,-6.4256,-6.4133,-6.4168,-6.4234,-6.4308,-6.4317,-6.4365,-6.4439,-6.445,-6.438,-6.4516,-6.4541,-6.4684,-6.4757,-6.4631,-6.4641,-6.5062,-6.507,-6.5077,-6.5137,0,0,0,0,0,0,-6.3957,-6.399,-6.4264,-6.4276,-6.4088,-6.4223,-6.4245,-6.4311,-6.442,-6.4433,-6.4343,-6.4338,-6.4518,-6.4538,-6.4558,-6.4751,-6.4615,-6.4626,-6.4632,-6.5068,-6.5074,-6.508,0,0,0,0,0,0,-6.3973,-6.4,-6.427,-6.4212,-6.4217,-6.4213,-6.4233,-6.4357,-6.4421,-6.4318,-6.4317,-6.434,-6.4488,-6.4536,-6.4551,-6.4744,-6.4603,-6.4613,-6.462,-6.4625,-6.5073,-6.5078,0,0,0,0,0,0,-6.3984,-6.4008,-6.4209,-6.4213,-6.4217,-6.4349,-6.4323,-6.4501,-6.4373,-6.4313,-6.4362,-6.4357,-6.4486,-6.4502,-6.4547,-6.4733,-6.4741,-6.4603,-6.461,-6.4615,-6.4618,0,0,0,0,0,0,0,-6.3994,-6.3831,-6.4195,-6.4214,-6.4217,-6.4383,-6.4386,-6.4389,-6.4372,-6.4367,-6.4363,-6.4359,-6.4544,-6.4555,-6.4567,-6.4725,0,0,-6.4602,-6.4607,0,0,0,0,0,0,0,0,-6.3822,-6.3829,-6.4196,-6.4198,-6.4201,-6.4383,-6.4386,-6.4389,-6.4371,-6.4367,-6.4364,-6.4361,-6.4547,-6.4556,-6.4565,0,0,0,0,0,0,0,0,0,0,0,0,0,0,0,-6.4196,-6.4198,0,-6.4384,-6.4386,-6.4388,-6.437,-6.4367,-6.4365,-6.4362,-6.455,-6.4557,-6.4565,0,0,0,0,0,0,0,0,0,0,0,0,0,0,0,0,0,0,0,0,0,0,0,0,0,0,0,0,0,0,0,0,0,0,0,0,0,0,0,0,0,0,0,0,0,0,0,0,0,0,0,0,0,0,0,0,0,0,0,0,0,0,0,0,0,0,0,0,0]}],[{"header":{"parameterUnit":"kt","parameterCategory":2,"dx":1,"dy":1,"la1":30.253999710083008,"la2":30.299108505249023,"lo1":-89.0895004272461,"lo2":-89.04439544677734,"nx":28,"ny":28,"refTime":"2022-10-10T21:00:00:Z","depth":0,"parameterNumber":2,"parameterNumberName":"V-component_of_WINDS"},"data":[5.7058,5.7126,5.7151,5.7239,5.7275,5.7338,5.7368,5.7409,5.7447,5.7524,5.7572,5.7599,5.7643,5.7703,5.7754,5.7764,5.7783,5.7794,5.7804,5.774,5.7732,5.7724,5.771,5.7799,5.7799,5.7866,5.7866,5.7867,5.702,5.7058,5.711,5.7177,5.7223,5.7229,5.7281,5.7317,5.7372,5.7418,5.7465,5.7533,5.7587,5.7626,5.7682,5.7712,5.7715,5.7726,5.7721,5.7728,5.7662,5.7646,5.7723,5.7723,5.7723,5.7723,5.7723,5.7723,5.6957,5.6996,5.7049,5.7106,5.7145,5.7188,5.7228,5.7261,5.731,5.7372,5.7386,5.7446,5.7493,5.7566,5.7594,5.7641,5.7632,5.7647,5.7651,5.7654,5.7656,5.756,5.7651,5.7651,5.7651,5.7651,5.7651,0,5.6917,5.6934,5.6983,5.7041,5.7083,5.7128,5.7172,5.7197,5.7232,5.727,5.7328,5.7363,5.7432,5.7485,5.7539,5.7564,5.7566,5.7568,5.7579,5.7572,5.7563,5.7568,5.7458,5.7563,5.7562,5.7561,5.7561,5.7561,5.6854,5.6895,5.6958,5.699,5.7018,5.7068,5.7102,5.713,5.7163,5.722,5.725,5.7305,5.7349,5.7432,5.7462,5.7512,5.7511,5.755,5.7518,5.7514,5.7511,5.7508,5.7512,5.7554,5.7555,5.7555,5.7556,0,5.6817,5.6849,5.6918,5.6973,5.6989,5.703,5.7076,5.7113,5.7138,5.7192,5.7206,5.7242,5.7294,5.7318,5.7379,5.739,5.7458,5.7458,5.7445,5.7445,5.7482,5.7477,5.7595,5.7612,5.7522,5.7523,5.7523,0,5.6774,5.6825,5.687,5.6907,5.6967,5.6991,5.7048,5.7073,5.7111,5.7153,5.7161,5.7201,5.7223,5.7267,5.7281,5.7341,5.7352,5.7362,5.7364,5.736,5.7358,5.7372,5.7366,5.7369,5.7368,5.7368,5.7367,0,5.671,5.6791,5.6853,5.6876,5.6935,5.6964,5.6989,5.703,5.706,5.7103,5.7122,5.7169,5.7194,5.723,5.7248,5.7226,5.7321,5.7293,5.7331,5.7331,5.7346,5.7344,5.7447,5.7366,5.7366,5.7366,5.7366,0,5.6677,5.6722,5.6806,5.6856,5.6875,5.6914,5.6963,5.7002,5.7043,5.7055,5.7088,5.7092,5.7145,5.7117,5.719,5.7156,5.7181,5.7195,5.7198,5.72,5.7166,5.7219,5.7318,5.7328,5.721,5.7208,5.7207,0,5.6597,5.6687,5.6707,5.6784,5.6829,5.6835,5.6879,5.6913,5.6932,5.6972,5.6992,5.7034,5.7018,5.7033,5.7068,5.7087,5.7132,5.7083,5.7136,5.7138,5.7125,5.7217,5.7224,5.7295,5.7191,5.7192,5.7194,0,5.6536,5.6605,5.6616,5.6643,5.6692,5.6726,5.6776,5.6824,5.685,5.6885,5.6926,5.6985,5.6976,5.7,5.7005,5.7039,5.7103,5.7021,5.7022,5.7035,5.7183,5.7191,5.7203,5.7099,5.7101,5.7103,5.7181,0,5.6481,5.6527,5.6561,5.6613,5.6643,5.669,5.6712,5.6742,5.6746,5.6762,5.6822,5.6849,5.6892,5.691,5.691,5.698,5.697,5.6957,5.6926,5.6986,5.7012,5.7023,5.6887,5.6886,5.6885,5.6885,0,0,5.6395,5.646,5.6474,5.6521,5.6547,5.6547,5.6596,5.662,5.6667,5.6684,5.6669,5.6754,5.6774,5.6843,5.6863,5.688,5.6894,5.6868,5.6958,5.6966,5.6973,5.7001,5.7012,5.6883,5.6883,5.6883,5.6883,0,5.6378,5.6403,5.6451,5.6478,5.6517,5.6531,5.6543,5.6579,5.6591,5.6647,5.6641,5.6678,5.674,5.6765,5.6785,5.6864,5.6853,5.6875,5.6912,5.695,5.6959,5.6967,5.6996,5.7006,5.6881,5.6881,5.6881,0,5.6321,5.635,5.6373,5.643,5.6453,5.6495,5.6472,5.6515,5.6546,5.6534,5.6588,5.6605,5.6635,5.6696,5.6724,5.6709,5.6817,5.6783,5.6788,5.6789,5.6827,5.6838,5.6847,5.672,5.6719,5.6719,0,0,5.6302,5.6343,5.6377,5.6427,5.6443,5.6462,5.6484,5.6489,5.6518,5.6529,5.6547,5.6575,5.6612,5.6635,5.667,5.6734,5.6741,5.6763,5.677,5.6777,5.6781,5.682,5.6831,5.6716,5.6716,5.6716,0,0,5.6291,5.6333,5.6331,5.6392,5.6423,5.6455,5.6484,5.6481,5.6514,5.651,5.6514,5.6521,5.6578,5.6591,5.6559,5.6658,5.6628,5.6636,5.6646,5.6656,5.6664,5.6657,5.6531,0,0,0,0,0,5.6282,5.6329,5.6327,5.634,5.6406,5.6457,5.6466,5.6472,5.6453,5.6477,5.6492,5.6479,5.6576,5.6548,5.6559,5.6592,5.6687,5.6692,5.6697,5.6726,5.6736,5.6744,0,0,0,0,0,0,5.6287,5.6302,5.6326,5.636,5.6375,5.6456,5.6424,5.6427,5.645,5.6448,5.6477,5.648,5.6484,5.6542,5.6552,5.6584,5.6528,5.6689,5.6693,5.6697,5.6729,5.6737,5.6744,0,0,0,0,0,5.6291,5.6303,5.6407,5.636,5.6372,5.6393,5.6422,5.6424,5.6442,5.6463,5.6466,5.6445,5.6485,5.6493,5.6548,5.6579,5.6521,5.6525,5.6692,5.6695,5.6698,5.6733,0,0,0,0,0,0,5.6294,5.6305,5.641,5.6414,5.6341,5.6389,5.6397,5.6422,5.6456,5.6459,5.643,5.6428,5.6486,5.6492,5.6499,5.6578,5.6515,5.6519,5.6521,5.6694,5.6697,5.6699,0,0,0,0,0,0,5.6298,5.6308,5.6412,5.6388,5.6389,5.6385,5.6392,5.6436,5.6456,5.6421,5.642,5.6429,5.6474,5.6492,5.6497,5.6567,5.6511,5.6515,5.6517,5.6519,5.6696,5.6699,0,0,0,0,0,0,5.6303,5.6311,5.6387,5.6388,5.6389,5.6436,5.6424,5.649,5.6439,5.6419,5.6434,5.6432,5.6474,5.6479,5.6496,5.6563,5.6566,5.6511,5.6513,5.6515,5.6516,0,0,0,0,0,0,0,5.6306,5.6246,5.6386,5.6388,5.6389,5.6452,5.6453,5.6455,5.6439,5.6437,5.6435,5.6433,5.649,5.6494,5.6498,5.6561,0,0,5.6511,5.6512,0,0,0,0,0,0,0,0,5.6242,5.6245,5.6386,5.6387,5.6388,5.6453,5.6453,5.6454,5.6438,5.6437,5.6435,5.6434,5.6491,5.6495,5.6498,0,0,0,0,0,0,0,0,0,0,0,0,0,0,0,5.6386,5.6387,0,5.6453,5.6453,5.6454,5.6438,5.6437,5.6436,5.6434,5.6492,5.6495,5.6498,0,0,0,0,0,0,0,0,0,0,0,0,0,0,0,0,0,0,0,0,0,0,0,0,0,0,0,0,0,0,0,0,0,0,0,0,0,0,0,0,0,0,0,0,0,0,0,0,0,0,0,0,0,0,0,0,0,0,0,0,0,0,0,0,0,0,0,0,0]}]]]